[[{"header":{"parameterUnit":"m.s-1","parameterCategory":1,"la1":30.2991,"la2":30.254,"lo1":-89.0895,"lo2":-89.0444,"dy":0.0017,"dx":0.0017,"nx":28,"ny":28,"refTime":"2023-08-13T21:00:00:Z","depth":0,"parameterNumber":2,"parameterNumberName":"U-component_of_WINDS"},"data":[0,0,0,0,0,0,0,0,0,0,0,0,0,0,0,0,0,0,0,0,0,0,0,0,0,0,0,0,0,0,0,0,0,0,0,0,0,0,0,0,0,0,0,0,0,0,0,0,0,0,0,0,0,0,0,0,0,0,3.4845,3.4846,0,3.4998,3.4999,3.5001,3.4979,3.4976,3.4973,3.4971,3.5128,3.5134,3.5141,0,0,0,0,0,0,0,0,0,0,0,0,0,3.4533,3.4538,3.4845,3.4847,3.4848,3.4997,3.5,3.5002,3.4979,3.4976,3.4973,3.497,3.5126,3.5134,3.5141,0,0,0,0,0,0,0,0,0,0,0,0,0,3.4675,3.454,3.4844,3.4855,3.4858,3.4997,3.5,3.5002,3.498,3.4976,3.4972,3.4968,3.5123,3.5133,3.5143,3.5281,0,0,3.5173,3.5177,0,0,0,0,0,0,0,0,3.4667,3.4687,3.4852,3.4855,3.4858,3.4965,3.4947,3.5096,3.4981,3.4933,3.4971,3.4966,3.5077,3.509,3.5128,3.5288,3.5295,3.5174,3.518,3.5184,3.5187,0,0,0,0,0,0,0,3.4657,3.468,3.4905,3.4854,3.4858,3.4852,3.4868,3.4975,3.5025,3.4937,3.4936,3.4954,3.5078,3.5118,3.5131,3.5297,3.5173,3.5182,3.5188,3.5192,3.5578,3.5582,0,0,0,0,0,0,3.4644,3.4672,3.49,3.491,3.4751,3.4861,3.4879,3.4935,3.5024,3.5034,3.4958,3.4953,3.5103,3.512,3.5136,3.5303,3.5184,3.5193,3.5199,3.5573,3.5579,3.5583,0,0,0,0,0,0,3.4638,3.4665,3.4894,3.4791,3.4819,3.4871,3.4933,3.494,3.498,3.5039,3.5048,3.4989,3.5101,3.5123,3.5245,3.5308,3.5197,3.5206,3.5568,3.5575,3.5581,3.5638,0,0,0,0,0,0,3.4629,3.4663,3.4716,3.4792,3.4825,3.5,3.4937,3.4945,3.4997,3.4992,3.5071,3.5081,3.5099,3.523,3.5255,3.532,3.5214,3.5563,3.5571,3.5579,3.5631,3.5646,3.5659,0,0,0,0,0,3.4618,3.4726,3.4719,3.4746,3.4893,3.5004,3.5023,3.5042,3.5002,3.5056,3.5094,3.5078,3.5298,3.5243,3.527,3.5339,3.5559,3.5569,3.5578,3.5625,3.5643,3.5659,0,0,0,0,0,0,3.4657,3.4737,3.4729,3.4865,3.4928,3.5,3.5068,3.5061,3.5136,3.5129,3.5149,3.5167,3.5291,3.5327,3.5265,3.5477,3.5423,3.5438,3.5449,3.5467,3.548,3.5468,3.5222,0,0,0,0,0,3.4681,3.4765,3.483,3.4944,3.4976,3.5017,3.5066,3.5075,3.5141,3.5167,3.5214,3.5279,3.5362,3.5417,3.5497,3.5637,3.5653,3.5698,3.5711,3.5723,3.5736,3.5811,3.5831,3.5615,3.5615,3.5615,0,0,3.4733,3.4787,3.4838,3.4954,3.5003,3.5089,3.5039,3.5133,3.5197,3.5182,3.53,3.5336,3.541,3.5541,3.5601,3.5575,3.5799,3.5735,3.5743,3.5751,3.5823,3.5844,3.5862,3.5622,3.5621,3.562,0,0,3.487,3.492,3.502,3.507,3.5146,3.5172,3.5196,3.5269,3.5293,3.5412,3.5402,3.5478,3.5622,3.5674,3.5719,3.5875,3.5864,3.5901,3.5974,3.6047,3.6064,3.6079,3.6134,3.6153,3.5914,3.5914,3.5914,0,3.4924,3.5054,3.5072,3.5166,3.5217,3.5207,3.5308,3.5356,3.5454,3.5489,3.5459,3.5638,3.5687,3.5829,3.5867,3.5905,3.5932,3.5892,3.606,3.6075,3.609,3.6142,3.6163,3.5918,3.5918,3.5917,3.5917,0,3.5116,3.5206,3.5278,3.5372,3.5431,3.5528,3.556,3.5618,3.5622,3.5651,3.5771,3.583,3.592,3.5955,3.5961,3.6099,3.608,3.6055,3.6,3.6114,3.6163,3.6184,3.5924,3.5922,3.5921,3.592,0,0,3.5283,3.5385,3.5411,3.5453,3.5536,3.5605,3.5702,3.5791,3.5839,3.5907,3.5987,3.6109,3.6085,3.6137,3.6148,3.6212,3.6331,3.6179,3.6181,3.6204,3.6486,3.6503,3.6526,3.6324,3.6328,3.6331,3.6479,0,3.5427,3.5597,3.5616,3.5768,3.5851,3.5842,3.5926,3.5985,3.6015,3.609,3.6123,3.6208,3.6171,3.6202,3.6266,3.6303,3.6388,3.6293,3.6399,3.6402,3.638,3.6553,3.6572,3.6709,3.6499,3.6502,3.6505,0,3.5619,3.5691,3.5851,3.5921,3.5956,3.6031,3.6114,3.6185,3.6252,3.6269,3.6326,3.6328,3.6427,3.6369,3.6506,3.6441,3.6485,3.651,3.6516,3.6526,3.646,3.6566,3.6753,3.6773,3.6535,3.6533,3.6531,0,3.5722,3.586,3.5973,3.601,3.6095,3.6147,3.6185,3.6248,3.63,3.6372,3.6406,3.6489,3.6534,3.6598,3.6622,3.6578,3.6757,3.6701,3.6773,3.6772,3.681,3.6807,3.7006,3.6841,3.6841,3.684,3.684,0,3.5881,3.5979,3.6021,3.6091,3.62,3.622,3.6328,3.6363,3.6419,3.6495,3.6493,3.6564,3.6593,3.6668,3.6688,3.6797,3.6818,3.6834,3.6838,3.6834,3.6832,3.6862,3.6853,3.6846,3.6845,3.6843,3.6843,0,3.6016,3.6048,3.617,3.624,3.626,3.6337,3.6397,3.6464,3.6492,3.6588,3.6612,3.6657,3.6746,3.6777,3.6885,3.6898,3.7025,3.7021,3.7002,3.7002,3.7072,3.7065,3.7297,3.7328,3.7143,3.7145,3.7146,0,3.6115,3.619,3.6267,3.6318,3.6357,3.6439,3.6491,3.6514,3.6569,3.665,3.6707,3.6795,3.6867,3.7009,3.7052,3.7134,3.7132,3.7207,3.7144,3.7137,3.7131,3.7126,3.7133,3.7219,3.7221,3.7222,3.7224,0,3.6286,3.6298,3.6374,3.6455,3.6518,3.6583,3.6646,3.6688,3.672,3.6782,3.6872,3.6928,3.7037,3.7125,3.7209,3.7247,3.7241,3.7243,3.7264,3.726,3.7245,3.7253,3.7033,3.7238,3.7236,3.7235,3.7234,3.7234,3.6405,3.6471,3.6535,3.662,3.6669,3.6728,3.6794,3.683,3.6906,3.6997,3.7006,3.7103,3.7167,3.728,3.7322,3.7398,3.7377,3.7408,3.7415,3.7422,3.7427,3.7234,3.7414,3.7413,3.7413,3.7413,3.7413,0,3.6576,3.6617,3.6694,3.6782,3.6848,3.6836,3.6905,3.6961,3.7046,3.7106,3.7177,3.728,3.7364,3.7413,3.7497,3.7549,3.7548,3.757,3.7566,3.7575,3.7441,3.7414,3.7569,3.7569,3.7569,3.7569,3.7569,3.7569,3.6672,3.6782,3.6802,3.6936,3.6976,3.7071,3.7111,3.7165,3.7213,3.7328,3.7398,3.7429,3.7485,3.7573,3.7649,3.7662,3.7692,3.7716,3.7726,3.76,3.7584,3.7569,3.7543,3.7723,3.7723,3.7853,3.7854,3.7855]},{"header":{"parameterUnit":"m.s-1","parameterCategory":1,"la1":30.2991,"la2":30.254,"lo1":-89.0895,"lo2":-89.0444,"dy":0.0017,"dx":0.0017,"nx":28,"ny":28,"refTime":"2023-08-13T21:00:00:Z","depth":0,"parameterNumber":3,"parameterNumberName":"V-component_of_WINDS"},"data":[0,0,0,0,0,0,0,0,0,0,0,0,0,0,0,0,0,0,0,0,0,0,0,0,0,0,0,0,0,0,0,0,0,0,0,0,0,0,0,0,0,0,0,0,0,0,0,0,0,0,0,0,0,0,0,0,0,0,-0.8512,-0.8512,0,-0.848,-0.848,-0.8479,-0.8477,-0.8477,-0.8477,-0.8478,-0.8441,-0.844,-0.8439,0,0,0,0,0,0,0,0,0,0,0,0,0,-0.8569,-0.8568,-0.8512,-0.8512,-0.8511,-0.848,-0.848,-0.8479,-0.8477,-0.8477,-0.8477,-0.8478,-0.8442,-0.844,-0.8439,0,0,0,0,0,0,0,0,0,0,0,0,0,-0.8541,-0.8568,-0.8512,-0.8506,-0.8506,-0.848,-0.848,-0.8479,-0.8476,-0.8477,-0.8477,-0.8478,-0.8442,-0.844,-0.8439,-0.8416,0,0,-0.8433,-0.8432,0,0,0,0,0,0,0,0,-0.8543,-0.8539,-0.8508,-0.8507,-0.8506,-0.8483,-0.8486,-0.8458,-0.8476,-0.8487,-0.8478,-0.8478,-0.8455,-0.8452,-0.8444,-0.8414,-0.8413,-0.8432,-0.8431,-0.843,-0.843,0,0,0,0,0,0,0,-0.8545,-0.8541,-0.8499,-0.8507,-0.8506,-0.8505,-0.8501,-0.8481,-0.8468,-0.8486,-0.8486,-0.8483,-0.8454,-0.8446,-0.8443,-0.8412,-0.8432,-0.8431,-0.843,-0.8429,-0.8362,-0.8361,0,0,0,0,0,0,-0.8548,-0.8542,-0.85,-0.8498,-0.8526,-0.8503,-0.8499,-0.849,-0.8468,-0.8466,-0.8482,-0.8483,-0.8449,-0.8446,-0.8442,-0.8414,-0.843,-0.8429,-0.8427,-0.8363,-0.8362,-0.8361,0,0,0,0,0,0,-0.8549,-0.8545,-0.8502,-0.852,-0.8515,-0.8502,-0.8491,-0.8489,-0.8481,-0.8465,-0.8463,-0.8477,-0.845,-0.8445,-0.8423,-0.8413,-0.8428,-0.8426,-0.8363,-0.8362,-0.8361,-0.8358,0,0,0,0,0,0,-0.8551,-0.8545,-0.8537,-0.852,-0.8514,-0.8483,-0.849,-0.8488,-0.8478,-0.8478,-0.8459,-0.8457,-0.845,-0.8426,-0.8421,-0.841,-0.8424,-0.8364,-0.8363,-0.8362,-0.8359,-0.8357,-0.8356,0,0,0,0,0,-0.8553,-0.8536,-0.8536,-0.8531,-0.8503,-0.8483,-0.8479,-0.8472,-0.8477,-0.8468,-0.8459,-0.8457,-0.8415,-0.8423,-0.8418,-0.8407,-0.8365,-0.8363,-0.8362,-0.836,-0.8357,-0.8356,0,0,0,0,0,0,-0.855,-0.8534,-0.8534,-0.8511,-0.8499,-0.8482,-0.8471,-0.847,-0.8455,-0.8456,-0.8447,-0.8443,-0.8421,-0.8412,-0.8421,-0.8384,-0.839,-0.8388,-0.839,-0.8388,-0.8387,-0.8389,-0.8423,0,0,0,0,0,-0.8548,-0.8533,-0.8519,-0.8501,-0.8494,-0.8484,-0.8475,-0.8471,-0.8457,-0.8451,-0.844,-0.8426,-0.8409,-0.8398,-0.8382,-0.8358,-0.8354,-0.8348,-0.8346,-0.8345,-0.8342,-0.8329,-0.8326,-0.8357,-0.8357,-0.8357,0,0,-0.8541,-0.853,-0.8521,-0.85,-0.849,-0.8474,-0.8479,-0.8463,-0.8451,-0.8448,-0.8427,-0.8418,-0.8402,-0.8379,-0.8368,-0.837,-0.8333,-0.8343,-0.8342,-0.834,-0.8327,-0.8324,-0.8322,-0.8356,-0.8356,-0.8356,0,0,-0.852,-0.8511,-0.8495,-0.8485,-0.847,-0.8463,-0.8459,-0.8444,-0.8438,-0.8417,-0.8415,-0.84,-0.8372,-0.8361,-0.8351,-0.8328,-0.8326,-0.8323,-0.8314,-0.8301,-0.8298,-0.8296,-0.8288,-0.8285,-0.8321,-0.8321,-0.8321,0,-0.8513,-0.8491,-0.8486,-0.847,-0.846,-0.8459,-0.8442,-0.8432,-0.8412,-0.8405,-0.8409,-0.8375,-0.8363,-0.8337,-0.8332,-0.8325,-0.8319,-0.8325,-0.8299,-0.8297,-0.8295,-0.8287,-0.8283,-0.8321,-0.8321,-0.8321,-0.8321,0,-0.8483,-0.8468,-0.8456,-0.8438,-0.8428,-0.8411,-0.8403,-0.8393,-0.839,-0.8383,-0.8361,-0.8348,-0.833,-0.8324,-0.832,-0.8297,-0.8299,-0.8301,-0.8307,-0.8292,-0.8284,-0.8281,-0.832,-0.832,-0.832,-0.8321,0,0,-0.8458,-0.844,-0.8435,-0.8427,-0.8411,-0.8399,-0.8382,-0.8366,-0.8357,-0.8344,-0.8329,-0.8306,-0.8308,-0.8297,-0.8293,-0.8282,-0.8264,-0.8285,-0.8285,-0.8281,-0.8238,-0.8236,-0.8232,-0.8264,-0.8263,-0.8262,-0.8239,0,-0.8436,-0.8407,-0.8403,-0.8377,-0.8363,-0.8362,-0.8347,-0.8336,-0.8329,-0.8315,-0.8307,-0.8291,-0.8295,-0.8289,-0.8278,-0.8269,-0.8255,-0.827,-0.8249,-0.8248,-0.8252,-0.8228,-0.8225,-0.8204,-0.8236,-0.8235,-0.8235,0,-0.8405,-0.8393,-0.8366,-0.8353,-0.8346,-0.8334,-0.8318,-0.8305,-0.8292,-0.8288,-0.8277,-0.8274,-0.8256,-0.8264,-0.8239,-0.825,-0.8241,-0.8235,-0.8234,-0.8231,-0.824,-0.8223,-0.8197,-0.8193,-0.823,-0.823,-0.8231,0,-0.8389,-0.8366,-0.8347,-0.834,-0.8324,-0.8315,-0.8308,-0.8296,-0.8286,-0.8272,-0.8266,-0.825,-0.8241,-0.8229,-0.8222,-0.8228,-0.8197,-0.8204,-0.8192,-0.8193,-0.8185,-0.8185,-0.8156,-0.8181,-0.8181,-0.8181,-0.8181,0,-0.8364,-0.8347,-0.8339,-0.8328,-0.8309,-0.8304,-0.8286,-0.8279,-0.8268,-0.8254,-0.8253,-0.824,-0.8232,-0.8218,-0.8212,-0.8192,-0.8188,-0.8184,-0.8182,-0.8183,-0.8184,-0.8176,-0.8177,-0.818,-0.818,-0.818,-0.8181,0,-0.8342,-0.8336,-0.8316,-0.8303,-0.83,-0.8286,-0.8275,-0.8263,-0.8258,-0.824,-0.8236,-0.8226,-0.821,-0.8202,-0.8181,-0.8177,-0.8154,-0.8154,-0.8159,-0.8158,-0.8146,-0.8147,-0.811,-0.8105,-0.8134,-0.8134,-0.8134,0,-0.8326,-0.8313,-0.83,-0.8291,-0.8284,-0.827,-0.8261,-0.8256,-0.8246,-0.8231,-0.8221,-0.8205,-0.8191,-0.8164,-0.8155,-0.8139,-0.8138,-0.8126,-0.8135,-0.8137,-0.8137,-0.8137,-0.8136,-0.8124,-0.8124,-0.8123,-0.8123,0,-0.8297,-0.8295,-0.8282,-0.8269,-0.8258,-0.8246,-0.8235,-0.8228,-0.8221,-0.821,-0.8194,-0.8184,-0.8163,-0.8147,-0.8131,-0.8122,-0.8121,-0.8121,-0.8117,-0.8117,-0.812,-0.8118,-0.8153,-0.8121,-0.8121,-0.8122,-0.8122,-0.8122,-0.8277,-0.8266,-0.8255,-0.8241,-0.8233,-0.8222,-0.8211,-0.8204,-0.8191,-0.8174,-0.8172,-0.8155,-0.8142,-0.8121,-0.8112,-0.8098,-0.8101,-0.8095,-0.8094,-0.8092,-0.8091,-0.8124,-0.8095,-0.8095,-0.8095,-0.8095,-0.8095,0,-0.8248,-0.8241,-0.8228,-0.8213,-0.8202,-0.8204,-0.8192,-0.8182,-0.8167,-0.8156,-0.8144,-0.8125,-0.811,-0.81,-0.8084,-0.8074,-0.8073,-0.807,-0.807,-0.8068,-0.809,-0.8095,-0.8071,-0.8071,-0.8071,-0.8071,-0.8071,-0.8071,-0.8231,-0.8213,-0.821,-0.8187,-0.818,-0.8164,-0.8157,-0.8147,-0.8139,-0.8118,-0.8106,-0.81,-0.8089,-0.8073,-0.8059,-0.8056,-0.805,-0.8047,-0.8044,-0.8064,-0.8067,-0.8069,-0.8073,-0.8046,-0.8046,-0.8023,-0.8023,-0.8023]}]]